Location: Lamy Ridge Observatory
(35.5010°N, 105.8759°W)
Time: 17:14:29
(UTC-06:00)

ACS3 Solar Sail - Pass Details

Date: 09 September 2024
Orbit: 963 x 1036 km, 97.4° (Epoch: 04 October)

Event Time Altitude Azimuth Distance (km) Brightness Sun altitude
Rises 19:13:58 0° 90° (E) 3,767 4.2 0.1°
Enters shadow 20:32:52 -46° 163° (SSE) 10,394 7.0 -15.7°
Maximum altitude 21:01:16 50° 73° (ENE) 1,292 2.1 -21.1°
